Location: Caltech
(34.1382°N, 118.1253°W)
Time: 02:35:23
(UTC-07:00)

ALOS - Visible Passes

Search period start: 27 June 2016 00:00
Search period end: 07 July 2016 00:00
Orbit: 685 x 687 km, 97.9° (Epoch: 26 June)

Date Brightness Start Highest point End Pass type
(mag) Time Alt. Az. Time Alt. Az. Time Alt. Az.
27 Jun 3.4 21:01:58 10° S 21:06:23 42° W 21:10:50 10° NNW visible
28 Jun 4.8 21:41:22 10° SW 21:44:16 16° W 21:47:11 10° NW visible
29 Jun 2.5 20:39:37 10° S 20:44:16 77° WSW 20:48:58 10° NNW visible
30 Jun 4.1 21:18:02 10° SSW 21:22:02 28° W 21:26:04 10° NW visible
01 Jul 5.2 21:59:10 10° WSW 22:00:00 10° W 22:00:50 10° W visible
02 Jul 3.2 20:55:22 10° S 20:59:53 50° W 21:04:25 10° NNW visible
03 Jul 4.7 21:34:26 10° SW 21:37:43 19° W 21:41:01 10° NW visible
04 Jul 2.3 20:33:07 10° SSE 20:37:47 89° WSW 20:42:29 10° NNW visible
05 Jul 3.9 21:11:20 10° SSW 21:15:30 33° W 21:19:43 10° NNW visible
06 Jul 5.0 21:51:29 10° WSW 21:53:26 12° W 21:55:23 10° WNW visible
